• In Belarus
  • List of Countries
  • For 7 days
  • Water Temperature
  • Satellite Maps
  • Weather Map
  • Weather Widgets
  • user-avatar
    Login

    Hourly Weather Pomorzany

    Today, 15 October, Monday

    Time Temperature Precipitation Wind Pressure Humidity
    00:00 +12°C° 0 mm 3 mps 746 mmHg 67%
    01:00 +12°C° 0 mm 2 mps 746 mmHg 68%
    02:00 +12°C° 0 mm 2 mps 746 mmHg 69%
    03:00 +12°C° 0 mm 2 mps 746 mmHg 69%
    04:00 +10°C° 0 mm 2 mps 746 mmHg 70%
    05:00 +10°C° 0 mm 2 mps 746 mmHg 69%
    06:00 +10°C° 0 mm 2 mps 746 mmHg 69%
    07:00 +12°C° 0 mm 2 mps 747 mmHg 66%
    08:00 +14°C° 0 mm 2 mps 747 mmHg 59%
    09:00 +16°C° 0 mm 2 mps 747 mmHg 52%
    10:00 +18°C° 0 mm 2 mps 747 mmHg 45%
    11:00 +19°C° 0 mm 2 mps 747 mmHg 41%
    12:00 +20°C° 0 mm 3 mps 746 mmHg 37%
    13:00 +22°C° 0 mm 3 mps 746 mmHg 34%
    14:00 +21°C° 0 mm 2 mps 746 mmHg 36%
    15:00 +20°C° 0 mm 2 mps 746 mmHg 38%
    16:00 +19°C° 0 mm 2 mps 745 mmHg 41%
    17:00 +17°C° 0 mm 2 mps 745 mmHg 43%
    18:00 +16°C° 0 mm 3 mps 745 mmHg 45%
    19:00 +13°C° 0 mm 3 mps 745 mmHg 47%
    20:00 +13°C° 0 mm 3 mps 745 mmHg 50%
    21:00 +12°C° 0 mm 3 mps 745 mmHg 52%
    22:00 +12°C° 0 mm 3 mps 745 mmHg 55%
    23:00 +12°C° 0 mm 2 mps 745 mmHg 55%

    Tomorrow, 16 October, Tuesday

    Time Temperature Precipitation Wind Pressure Humidity
    00:00 +12°C° 0 mm 2 mps 745 mmHg 56%
    01:00 +10°C° 0 mm 2 mps 745 mmHg 56%
    02:00 +10°C° 0 mm 2 mps 745 mmHg 56%
    03:00 +11°C° 0 mm 1 mps 745 mmHg 56%
    04:00 +11°C° 0 mm 1 mps 745 mmHg 56%
    05:00 +11°C° 0 mm 1 mps 745 mmHg 56%
    06:00 +11°C° 0 mm 1 mps 745 mmHg 56%
    07:00 +11°C° 0 mm 1 mps 746 mmHg 56%
    08:00 +14°C° 0 mm 1 mps 746 mmHg 50%
    09:00 +16°C° 0 mm 1 mps 746 mmHg 45%
    10:00 +19°C° 0 mm 1 mps 746 mmHg 40%
    11:00 +20°C° 0 mm 1 mps 746 mmHg 37%
    12:00 +21°C° 0 mm 1 mps 746 mmHg 34%
    13:00 +22°C° 0 mm 1 mps 746 mmHg 31%
    14:00 +21°C° 0 mm 1 mps 746 mmHg 35%
    15:00 +20°C° 0 mm 1 mps 746 mmHg 38%
    16:00 +19°C° 0 mm 1 mps 745 mmHg 41%
    17:00 +18°C° 0 mm 1 mps 745 mmHg 43%
    18:00 +16°C° 0 mm 1 mps 746 mmHg 46%
    19:00 +14°C° 0 mm 1 mps 746 mmHg 48%
    20:00 +14°C° 0 mm 1 mps 746 mmHg 49%
    21:00 +14°C° 0 mm 1 mps 746 mmHg 50%
    22:00 +13°C° 0 mm 1 mps 746 mmHg 51%
    23:00 +13°C° 0 mm 1 mps 746 mmHg 52%

    Day after tomorrow, 17 October, Wednesday

    Time Temperature Precipitation Wind Pressure Humidity
    00:00 +13°C° 0 mm 1 mps 746 mmHg 52%
    01:00 +13°C° 0 mm 1 mps 746 mmHg 52%
    02:00 +13°C° 0 mm 1 mps 746 mmHg 53%
    03:00 +12°C° 0 mm 1 mps 746 mmHg 53%
    04:00 +12°C° 0 mm 1 mps 746 mmHg 53%
    05:00 +12°C° 0 mm 1 mps 746 mmHg 54%
    06:00 +12°C° 0 mm 1 mps 746 mmHg 55%
    07:00 +12°C° 0 mm 1 mps 746 mmHg 55%
    08:00 +14°C° 0 mm 1 mps 746 mmHg 50%
    09:00 +16°C° 0 mm 1 mps 746 mmHg 46%
    10:00 +19°C° 0 mm 1 mps 746 mmHg 41%
    11:00 +20°C° 0 mm 1 mps 746 mmHg 38%
    12:00 +21°C° 0 mm 1 mps 746 mmHg 36%
    13:00 +22°C° 0 mm 1 mps 746 mmHg 34%
    14:00 +21°C° 0 mm 1 mps 745 mmHg 37%
    15:00 +20°C° 0 mm 1 mps 745 mmHg 40%
    16:00 +20°C° 0 mm 1 mps 745 mmHg 43%
    17:00 +17°C° 0 mm 2 mps 745 mmHg 45%
    18:00 +16°C° 0 mm 2 mps 745 mmHg 47%
    19:00 +15°C° 0 mm 2 mps 745 mmHg 49%
    20:00 +15°C° 0 mm 2 mps 745 mmHg 51%
    21:00 +14°C° 0 mm 2 mps 745 mmHg 52%
    22:00 +14°C° 0 mm 1 mps 745 mmHg 54%
    23:00 +13°C° 0 mm 1 mps 745 mmHg 56%

    18 October, Thursday

    Time Temperature Precipitation Wind Pressure Humidity
    00:00 +13°C° 0 mm 1 mps 745 mmHg 58%
    01:00 +12°C° 0 mm 1 mps 745 mmHg 60%
    02:00 +12°C° 0 mm 1 mps 745 mmHg 62%
    03:00 +12°C° 0 mm 1 mps 744 mmHg 64%
    04:00 +10°C° 0 mm 0 mps 744 mmHg 66%
    05:00 +10°C° 0 mm 0 mps 744 mmHg 67%
    06:00 +10°C° 0 mm 0 mps 744 mmHg 68%
    07:00 +10°C° 0 mm 0 mps 744 mmHg 69%
    08:00 +13°C° 0 mm 1 mps 744 mmHg 63%
    09:00 +15°C° 0 mm 1 mps 744 mmHg 57%
    10:00 +18°C° 0 mm 1 mps 744 mmHg 51%
    11:00 +19°C° 0 mm 1 mps 744 mmHg 49%
    12:00 +20°C° 0 mm 1 mps 744 mmHg 47%
    13:00 +19°C° 0 mm 2 mps 744 mmHg 45%
    14:00 +20°C° 0 mm 1 mps 744 mmHg 48%
    15:00 +19°C° 0 mm 1 mps 744 mmHg 52%
    16:00 +18°C° 0 mm 1 mps 743 mmHg 55%
    17:00 +16°C° 0 mm 1 mps 743 mmHg 58%
    18:00 +15°C° 0 mm 1 mps 744 mmHg 62%
    19:00 +14°C° 0 mm 1 mps 744 mmHg 65%
    20:00 +14°C° 0 mm 1 mps 744 mmHg 66%
    21:00 +14°C° 0 mm 1 mps 744 mmHg 67%
    22:00 +14°C° 0 mm 1 mps 744 mmHg 69%
    23:00 +13°C° 0 mm 1 mps 744 mmHg 70%

    19 October, Friday

    Time Temperature Precipitation Wind Pressure Humidity
    00:00 +13°C° 0 mm 1 mps 744 mmHg 72%
    01:00 +13°C° 0 mm 1 mps 744 mmHg 73%
    02:00 +12°C° 0 mm 1 mps 744 mmHg 75%
    03:00 +12°C° 0 mm 1 mps 744 mmHg 77%
    04:00 +12°C° 0 mm 1 mps 744 mmHg 79%
    05:00 +12°C° 0 mm 1 mps 744 mmHg 80%
    06:00 +12°C° 0 mm 1 mps 744 mmHg 80%
    07:00 +12°C° 0 mm 1 mps 744 mmHg 81%
    08:00 +14°C° 0 mm 1 mps 744 mmHg 75%
    09:00 +15°C° 0 mm 1 mps 744 mmHg 68%
    10:00 +18°C° 0 mm 1 mps 744 mmHg 62%
    11:00 +17°C° 0 mm 2 mps 744 mmHg 59%
    12:00 +18°C° 0 mm 2 mps 744 mmHg 57%
    13:00 +19°C° 0 mm 2 mps 744 mmHg 54%
    14:00 +18°C° 0 mm 2 mps 744 mmHg 57%
    15:00 +18°C° 0 mm 2 mps 744 mmHg 60%
    16:00 +17°C° 0 mm 2 mps 743 mmHg 63%
    17:00 +16°C° 0 mm 2 mps 744 mmHg 66%
    18:00 +15°C° 0 mm 2 mps 744 mmHg 70%
    19:00 +14°C° 0 mm 2 mps 744 mmHg 74%
    20:00 +13°C° 0 mm 2 mps 744 mmHg 76%
    21:00 +13°C° 0 mm 2 mps 744 mmHg 78%
    22:00 +12°C° 0 mm 2 mps 744 mmHg 80%
    23:00 +12°C° 0 mm 2 mps 745 mmHg 82%

    20 October, Saturday

    Time Temperature Precipitation Wind Pressure Humidity
    00:00 +12°C° 0 mm 2 mps 745 mmHg 84%
    01:00 +12°C° 0 mm 2 mps 745 mmHg 86%
    02:00 +12°C° 0 mm 2 mps 745 mmHg 86%
    03:00 +11°C° 0 mm 3 mps 745 mmHg 87%
    04:00 +11°C° 0 mm 3 mps 745 mmHg 87%
    05:00 +11°C° 0.1 mm 3 mps 745 mmHg 84%
    06:00 +10°C° 0.1 mm 4 mps 746 mmHg 82%
    07:00 +10°C° 0.1 mm 4 mps 746 mmHg 79%
    08:00 +11°C° 0 mm 4 mps 746 mmHg 74%
    09:00 +11°C° 0 mm 4 mps 746 mmHg 69%
    10:00 +11°C° 0 mm 4 mps 747 mmHg 64%
    11:00 +12°C° 0 mm 4 mps 747 mmHg 61%
    12:00 +12°C° 0 mm 5 mps 747 mmHg 58%
    13:00 +13°C° 0 mm 5 mps 747 mmHg 55%
    14:00 +12°C° 0 mm 5 mps 747 mmHg 58%
    15:00 +11°C° 0 mm 4 mps 747 mmHg 61%
    16:00 +11°C° 0 mm 4 mps 747 mmHg 64%
    17:00 +10°C° 0 mm 4 mps 747 mmHg 66%
    18:00 +10°C° 0 mm 4 mps 747 mmHg 68%
    19:00 +8°C° 0 mm 4 mps 748 mmHg 70%
    20:00 +8°C° 0 mm 4 mps 748 mmHg 68%
    21:00 +9°C° 0 mm 3 mps 748 mmHg 67%
    22:00 +9°C° 0 mm 3 mps 748 mmHg 65%
    23:00 +8°C° 0 mm 3 mps 748 mmHg 67%
    Show more